Location: *
(44.9308°N, 123.0197°W)
Time: 04:33:55
(UTC+00:00)

Cosmos 1125 Rocket - Pass Details

Date: 09 April 2020
Orbit: 758 x 779 km, 74.0° (Epoch: 25 May)

Event Time Altitude Azimuth Distance (km) Brightness Sun altitude
Exits shadow 12:03:29 25° 258° (WSW) 1,522 4.5 -16.3°
Maximum altitude 12:05:36 35° 300° (WNW) 1,254 4.3 -16.0°
Drops below altitude 10° 12:10:27 10° 6° (N) 2,340 6.5 -15.2°
Sets 12:13:03 0° 15° (NNE) 3,270 7.4 -14.8°
